This is the latest recevied weather packets stored in our database for station/object BARLOW-WX. If no packets are shown the sender has not sent any weather packets the latest 10 day(s).
| Time | Temp. | Humidity | Pressure | Rain* | Wind** | Luminosity | Snow |
|---|---|---|---|---|---|---|---|
| 1776959180 | 21.11° C | 74% | 985.2 hPa | 0 mm | - | - | - |
| 1776958298 | 21.11° C | 74% | 985.3 hPa | 0 mm | - | - | - |
| 1776957380 | 20.56° C | 74% | 985.3 hPa | 0 mm | - | - | - |
| 1776956502 | 20° C | 74% | 985.3 hPa | 0 mm | - | - | - |
| 1776955580 | 19.44° C | 80% | 985.6 hPa | 0 mm | - | - | - |
| 1776954696 | 18.89° C | 80% | 985.8 hPa | 0 mm | - | - | - |
| 1776953780 | 18.33° C | 80% | 985.7 hPa | 0 mm | - | - | - |
| 1776952908 | 17.78° C | 80% | 985.7 hPa | 0 mm | - | - | - |
| 1776951980 | 16.67° C | 87% | 985.9 hPa | 0 mm | - | - | - |
| 1776951095 | 16.67° C | 87% | 985.9 hPa | 0 mm | - | - | - |
| 1776950180 | 15.56° C | 87% | 985.9 hPa | 0 mm | - | - | - |
| 1776949301 | 15° C | 87% | 985.9 hPa | 0 mm | - | - | - |
| 1776948379 | 14.44° C | 93% | 986 hPa | 0 mm | - | - | - |
| 1776947491 | 13.33° C | 94% | 985.7 hPa | 0 mm | - | - | - |
| 1776946579 | 12.22° C | 94% | 985.7 hPa | 0 mm | - | - | - |
| 1776945707 | 11.67° C | 94% | 985.7 hPa | 0 mm | - | - | - |
| 1776944779 | 11.11° C | 89% | 985 hPa | 0 mm | - | - | - |
| 1776943894 | 10.56° C | 89% | 985.6 hPa | 0 mm | - | - | - |
| 1776942979 | 10.56° C | 89% | 985.6 hPa | 0 mm | - | - | - |
| 1776942103 | 10.56° C | 89% | 985.6 hPa | 0 mm | - | - | - |
| 1776941179 | 10.56° C | 89% | 985.4 hPa | 0 mm | - | - | - |
| 1776940294 | 10.56° C | 89% | 985.4 hPa | 0 mm | - | - | - |
| 1776939383 | 10.56° C | 89% | 986.2 hPa | 0 mm | - | - | - |
| 1776938505 | 10.56° C | 89% | 986.2 hPa | 0 mm | - | - | - |
| 1776937577 | 10.56° C | 92% | 985.9 hPa | 0 mm | - | - | - |
* Rain latest hour (hover to see other rain measurements)
** Current wind speed in m/s (hover to see current wind gust speed)